TimeCST,TemperatureF,Dew PointF,Humidity,Sea Level PressureIn,VisibilityMPH,Wind Direction,Wind SpeedMPH,Gust SpeedMPH,PrecipitationIn,Events,Conditions,WindDirDegrees,DateUTC
12:23 AM,12.2,8.6,85,30.10,10.0,Calm,Calm,-,N/A,,Overcast,0,2012-12-28 06:23:00
12:53 AM,14.0,10.0,84,30.19,10.0,Calm,Calm,-,N/A,,Overcast,0,2012-12-28 06:53:00
1:53 AM,14.0,9.0,80,30.19,10.0,Calm,Calm,-,N/A,,Overcast,0,2012-12-28 07:53:00
2:53 AM,15.1,10.9,84,30.19,10.0,Calm,Calm,-,N/A,,Overcast,0,2012-12-28 08:53:00
3:53 AM,15.1,10.9,84,30.18,10.0,Calm,Calm,-,N/A,,Overcast,0,2012-12-28 09:53:00
4:53 AM,15.1,10.9,84,30.17,10.0,Calm,Calm,-,N/A,,Overcast,0,2012-12-28 10:53:00
5:53 AM,16.0,10.9,81,30.17,10.0,Calm,Calm,-,N/A,,Overcast,0,2012-12-28 11:53:00
6:53 AM,16.0,12.0,84,30.15,10.0,NNE,3.5,-,N/A,,Overcast,30,2012-12-28 12:53:00
7:53 AM,17.1,12.9,84,30.15,10.0,Calm,Calm,-,N/A,,Overcast,0,2012-12-28 13:53:00
8:53 AM,18.0,14.0,84,30.15,10.0,ENE,3.5,-,N/A,,Overcast,60,2012-12-28 14:53:00
9:53 AM,19.0,14.0,81,30.15,10.0,East,8.1,-,N/A,,Overcast,90,2012-12-28 15:53:00
10:53 AM,19.9,14.0,78,30.14,10.0,ENE,6.9,-,N/A,,Overcast,70,2012-12-28 16:53:00
11:53 AM,21.0,14.0,74,30.11,4.0,ENE,6.9,-,0.00,Snow,Light Snow,70,2012-12-28 17:53:00
12:40 PM,21.2,14.0,74,29.99,2.5,ENE,6.9,-,0.00,Snow,Light Snow,70,2012-12-28 18:40:00
12:53 PM,21.0,15.1,78,30.08,2.5,East,5.8,-,0.00,Snow,Light Snow,80,2012-12-28 18:53:00
1:29 PM,21.2,15.8,80,29.97,1.8,East,6.9,-,0.00,Snow,Light Snow,90,2012-12-28 19:29:00
1:45 PM,21.2,15.8,80,29.97,2.0,ENE,5.8,-,0.00,Snow,Light Snow,60,2012-12-28 19:45:00
1:53 PM,21.0,16.0,81,30.06,2.0,ENE,4.6,-,0.00,Snow,Light Snow,60,2012-12-28 19:53:00
2:26 PM,21.2,15.8,80,29.96,4.0,ENE,5.8,-,0.00,Snow,Light Snow,70,2012-12-28 20:26:00
2:41 PM,21.2,15.8,80,29.95,2.5,ENE,5.8,-,0.00,Snow,Light Snow,60,2012-12-28 20:41:00
2:53 PM,21.0,16.0,81,30.05,2.5,ENE,5.8,-,0.00,Snow,Light Snow,70,2012-12-28 20:53:00
3:36 PM,21.2,15.8,80,29.96,1.8,NE,4.6,-,0.00,Snow,Light Snow,50,2012-12-28 21:36:00
3:53 PM,21.0,17.1,85,30.04,1.8,NE,4.6,-,0.00,Snow,Light Snow,40,2012-12-28 21:53:00
4:07 PM,21.2,17.6,86,29.95,2.0,ENE,4.6,-,0.00,Snow,Light Snow,60,2012-12-28 22:07:00
4:24 PM,21.2,17.6,86,29.95,1.5,NE,4.6,-,0.00,Snow,Light Snow,50,2012-12-28 22:24:00
4:48 PM,21.2,17.6,86,29.95,2.5,Calm,Calm,-,0.00,Snow,Light Snow,0,2012-12-28 22:48:00
4:53 PM,21.0,18.0,88,30.05,3.0,Calm,Calm,-,0.00,Snow,Light Snow,0,2012-12-28 22:53:00
4:56 PM,21.2,17.6,86,29.96,2.5,Calm,Calm,-,0.00,Snow,Light Snow,0,2012-12-28 22:56:00
5:09 PM,19.4,17.6,93,29.95,2.0,Calm,Calm,-,0.00,Snow,Light Snow,0,2012-12-28 23:09:00
5:19 PM,19.4,17.6,93,29.95,5.0,NE,3.5,-,0.00,Snow,Light Snow,40,2012-12-28 23:19:00
5:53 PM,19.9,18.0,92,30.04,4.0,NE,3.5,-,0.00,Snow,Light Snow,40,2012-12-28 23:53:00
6:53 PM,19.9,18.0,92,30.04,1.8,NE,3.5,-,0.00,Snow,Light Snow,40,2012-12-29 00:53:00
7:16 PM,19.4,17.6,93,29.95,2.0,ENE,4.6,-,0.00,Snow,Light Snow,60,2012-12-29 01:16:00
7:31 PM,19.4,17.6,93,29.95,3.0,ENE,3.5,-,0.00,Snow,Light Snow,60,2012-12-29 01:31:00
7:53 PM,19.9,17.1,89,30.04,3.0,NE,3.5,-,0.00,Snow,Light Snow,50,2012-12-29 01:53:00
8:03 PM,19.4,17.6,93,29.94,2.0,ENE,4.6,-,0.01,Snow,Light Snow,60,2012-12-29 02:03:00
8:30 PM,19.4,17.6,93,29.94,4.0,NE,3.5,-,0.01,Snow,Light Snow,50,2012-12-29 02:30:00
8:53 PM,19.9,17.1,89,30.03,3.0,NE,3.5,-,0.01,Snow,Light Snow,40,2012-12-29 02:53:00
9:53 PM,19.9,17.1,89,30.01,4.0,NNE,4.6,-,0.00,Snow,Light Snow,30,2012-12-29 03:53:00
10:23 PM,19.4,17.6,93,29.92,2.5,NE,3.5,-,0.00,Snow,Light Snow,50,2012-12-29 04:23:00
10:34 PM,19.4,17.6,93,29.92,1.5,ENE,4.6,-,0.00,Snow,Light Snow,60,2012-12-29 04:34:00
10:53 PM,19.9,17.1,89,30.00,1.5,NE,4.6,-,0.00,Snow,Light Snow,50,2012-12-29 04:53:00
11:05 PM,19.4,17.6,93,29.91,2.0,NE,3.5,-,0.00,Snow,Light Snow,50,2012-12-29 05:05:00
11:44 PM,19.4,17.6,93,29.90,2.5,NNE,3.5,-,0.00,Snow,Light Snow,30,2012-12-29 05:44:00
11:53 PM,19.9,17.1,89,29.98,2.5,NNE,3.5,-,0.01,Snow,Light Snow,30,2012-12-29 05:53:00